Tracking 19827 objects as of 22-Aug-2019
HD Live streaming from Space Station
objects crossing your sky now

OPS 7218 (TRANSIT 16)

Track OPS 7218 (TRANSIT 16) now!
10-day predictions
OPS 7218 (TRANSIT 16) is classified as:


NORAD ID: 2807
Int'l Code: 1967-048A
Perigee: 1,064.7 km
Apogee: 1,092.5 km
Inclination: 89.6 °
Period: 106.6 minutes
Semi major axis: 7449 km
RCS: 1.5463 m2 (large)
Launch date: May 18, 1967
Source: United States (US)
Launch site: AIR FORCE WESTERN TEST RANGE (AFWTR)
aabbcc
Your satellite tracking list
Your tracking list is empty




NASA's NSSDC Master Catalog

Two Line Element Set (TLE):
1  2807U 67048A   19233.23322479  .00000026  00000-0  24208-4 0  9990
2  2807  89.6190  74.3327 0018618 304.0817 127.1097 13.50212279572109
Source of the keplerian elements: AFSPC